Volver al catálogo

FENGYUN 1C DEB

ActivoSSO
NORAD 40689·DEBRIS·🇨🇳 China

Lanzado May 10, 1999 desde Taiyuan Satellite Launch Center

Loading…

Próximos Pases (próximas 24 horas)

TLE

EnvejeciendoSource: Space-Track

Época: Sep 7, 2026, 13:09 UTC

1 40689U 99025EWV 26250.54807170  .00000972  00000-0  89406-3 0  9997
2 40689  99.1177 157.9734 0308729 122.3102 240.8341 13.65493723585518

Sigue FENGYUN 1C DEB en tiempo real con AllMySat

Download on the App Store